map of BWN home
Great Circle Mapper logo
BWN - Airport
Location
City:  Bandar Seri Begwan, Brunei Darussalam
Name:Bandar Seri Begwan International Airport
ICAO / IATA:WBSB / BWN

Details
Type:Airport (Aerodrome, Airfield)
Use:Public/Civil, International (customs port of entry)
Latitude:456'39"N (4.944200)
Longitude:11455'42"E (114.928353)
Datum:WGS 1984
Elevation:73 ft (22 m)
Variation:0.01W (WMM2015 magnetic declination)
-0.08 annual change
Runways:1
Longest:12000 × 150 ft (3658 × 45.5 m), paved

Time
Time Zone:UTC+8
Local Time:

Weather
METAR:WBSB 280000Z 17007KT 9999 FEW015 FEW016CB BKN300 28/24 Q1012 NOSIG
TAF:WBSB 272300Z 2800/2906 19006KT 9999 FEW015 FEW016CB
BECMG 2803/2805 34010KT FEW016 FEW017CB PROB30
TEMPO 2805/2807 7000 -SHRA SCT015

Related Locations
Nearby:
Farthest:SWUY: 12431 mi / 20006 km
Coari [Urucu], AM, BR

Find:

   beyond  
but within

Other Information
Maps:
NOTAMs:
Links:
Sources:

  
flag of Brunei Darussalam   

Sectional Chart

Flight Planning
at skyvector.com

Satellite Image

Google Maps Satellite View

 

Copyright © 2004-2015 Karl L. Swartz. All rights reserved.
The Great Circle Mapper name and logo are trademarks of the Great Circle Mapper.
All other trademarks mentioned herein belong to their respective owners.
Please see credits for attibutions and further copyright information.

  Follow gcmap on Facebook Follow gcmap on Twitter Follow gcmap on Google+

hCard Microformat

Geo Microformat